Location: Rimrock Meadows
(47.4808°N, 119.7286°W)
Time: 05:12:42
(UTC-07:00)

Daily predictions for brighter satellites

Satellite Brightness Start Highest point End
(mag) Time Altitude Azimuth Time Altitude Azimuth Time Altitude Azimuth
Cosmos 2360 Rocket 2.7 00:09:18 58° NNW 00:09:18 58° NNW 00:14:12 10° NNE
H-2A R/B 4.3 00:19:47 14° W 00:19:47 14° W 00:21:56 10° WNW
Cosmos 1655 Rocket 4.4 00:17:11 10° N 00:22:48 56° NE 00:22:48 56° NE
Lacrosse 4 Rocket 3.7 00:27:20 24° NNE 00:27:20 24° NNE 00:29:11 10° NNE
Cosmos 2219 Rocket 3.5 00:31:10 32° NE 00:31:10 32° NE 00:34:17 10° NE
Cosmos 2263 Rocket 4.4 00:28:29 10° WNW 00:30:33 15° W 00:30:33 15° W
Cosmos 2322 Rocket 4.5 00:37:56 10° W 00:41:54 19° NW 00:45:54 10° N
ATLAS CENTAUR R/B 4.5 00:40:50 51° SW 00:44:25 86° SE 01:14:02 10° NE
SL-16 R/B 4.2 00:47:17 18° ENE 00:47:17 18° ENE 00:49:21 10° NE
ATLAS CENTAUR R/B 4.4 00:44:43 10° N 00:47:16 14° NNE 00:49:30 11° NE
Cosmos 2237 Rocket 3.5 00:50:38 33° ENE 00:50:38 33° ENE 00:53:58 10° NE
Cosmos 1634 Rocket 4.2 00:50:31 67° NNW 00:50:31 67° NNW 00:56:02 10° N
Cosmos 2333 Rocket 3.3 00:51:43 38° NE 00:51:43 38° NE 00:55:22 10° NE
Cosmos 2297 4.5 00:44:06 10° NNW 00:48:56 47° NNE 00:48:56 47° NNE
ATLAS 3B R/B 3.3 00:57:28 51° E 00:57:28 51° E 01:03:27 10° NE
CZ-4C R/B 4.3 01:06:22 16° ENE 01:06:22 16° ENE 01:08:10 10° ENE
COSMOS 2455 3.6 01:06:03 46° NE 01:06:03 46° NE 01:10:17 10° NE
Cosmos 2279 Rocket 4.3 01:06:57 64° NNE 01:06:57 64° NNE 01:12:09 10° N
COSMOS 2428 3.5 01:07:00 46° NNW 01:07:00 46° NNW 01:11:50 10° NNE
Cosmos 2278 Rocket 3.4 01:15:10 10° NW 01:18:29 34° NW 01:18:29 34° NW
Cosmos 2266 Rocket 4.3 01:18:26 10° N 01:24:17 65° NE 01:24:17 65° NE
CZ-2C R/B 4.3 01:36:13 33° NNW 01:36:13 33° NNW 01:39:02 10° NNW
CZ-2C R/B 3.4 01:37:59 10° N 01:42:24 50° NNW 01:42:24 50° NNW
Cosmos 1607 4.5 01:52:11 49° E 01:52:11 49° E 01:57:03 10° NE
USA 238 DEB 3.9 01:53:05 59° ESE 01:53:05 59° ESE 01:59:27 10° NE
USA 238 3.9 01:53:12 59° ESE 01:53:12 59° ESE 01:59:34 10° NE
NOSS 0 Rocket 4.4 01:56:08 54° NW 01:56:08 54° NW 02:01:57 10° NNE
Cosmos 2369 Rocket 3.7 01:58:19 10° NNW 02:03:20 32° NE 02:06:18 20° E
Lacrosse 4 Rocket 4.2 02:03:40 13° NW 02:04:24 14° NNW 02:06:41 10° N
BREEZE-M DEB (TANK) 4.1 01:51:23 10° WNW 02:07:56 89° SSW 02:07:56 89° SSW
Cosmos 2219 Rocket 3.5 02:12:53 30° NW 02:13:04 31° NW 02:18:02 10° NNE
Cosmos 1943 Rocket 4.4 02:17:29 10° N 02:21:57 23° NE 02:26:24 10° E
NOSS 3-2 (C) 4.4 02:25:12 36° ESE 02:25:12 36° ESE 02:31:08 10° NE
ATLAS CENTAUR R/B 3.1 02:23:05 10° NNW 02:25:44 31° NNW 02:25:44 31° NNW
SL-16 R/B 2.4 02:29:10 63° NNW 02:29:10 63° NNW 02:34:24 10° NNE
Cosmos 2237 Rocket 3.3 02:32:28 32° WNW 02:32:45 33° NW 02:37:53 10° NNE
Cosmos 2228 Rocket 4.5 02:35:31 35° NNW 02:35:31 35° NNW 02:38:26 10° N
Cosmos 2333 Rocket 3.5 02:33:43 29° WNW 02:34:21 29° NW 02:39:22 10° NNE
Cosmos 1340 Rocket 4.4 02:40:10 10° N 02:42:32 33° N 02:42:32 33° N
Cosmos 1869 Rocket 4.4 02:40:36 10° N 02:44:23 47° NE 02:44:23 47° NE
ATLAS 3B R/B 3.5 02:44:43 36° W 02:47:14 47° NW 02:54:15 10° NE
CZ-3A R/B 4.3 02:44:30 38° S 02:49:11 56° ESE 03:47:35 10° NE
COSMOS 2455 4.2 02:49:11 26° WNW 02:50:45 30° NW 02:56:00 10° NNE
CZ-4C R/B 2.2 02:51:33 76° WNW 02:51:41 76° NW 02:57:54 10° NE
ATLAS 5 CENTAUR R/B 3.7 02:56:50 20° ESE 02:57:14 20° ESE 03:00:55 10° ENE
Cosmos 839 Rocket 4.3 02:50:14 10° NW 02:58:54 85° WSW 03:02:40 31° SSE
S3M 3.9 02:59:47 69° S 03:00:39 89° E 03:07:02 10° N
Cosmos 1048 Rocket 4.2 03:03:21 63° WNW 03:03:21 63° WNW 03:08:37 10° NNE
IRS-1C 4.2 02:59:06 10° NNE 03:04:27 68° ESE 03:04:59 63° SE
Meteor 2-2 Rocket 4.4 03:06:45 60° W 03:07:01 60° WNW 03:12:52 10° N
BREEZE-M DEB (TANK) 3.5 03:07:03 53° SSW 03:08:37 71° SSE 03:12:26 10° ENE
Cosmos 1603 3.6 03:11:03 71° WSW 03:11:31 76° WNW 03:17:17 10° NNE
In-Cosmos 22 Rocket 3.9 03:06:40 10° NNW 03:12:01 89° ENE 03:12:31 75° SSE
SL-16 R/B 2.8 03:08:38 23° SE 03:12:33 64° ENE 03:18:42 10° N
Cosmos 1386 Rocket 4.4 03:07:46 10° N 03:14:09 88° E 03:15:56 50° S
Cosmos 1892 3.8 03:11:23 10° N 03:15:04 40° ENE 03:15:12 40° E
IRS-1D 4.4 03:11:43 10° NNE 03:16:43 44° E 03:18:24 34° SE
Spot 4 Rocket 4.3 03:11:57 10° NNE 03:17:06 63° ESE 03:18:00 54° SSE
SL-08 R/B 4.2 03:19:44 35° NW 03:19:44 35° NW 03:22:53 10° NNW
Cosmos 1726 3.0 03:19:59 47° NNE 03:19:59 47° NNE 03:22:43 10° N
Cosmos 1553 Rocket 3.9 03:18:40 60° SW 03:19:34 68° W 03:25:41 10° N
Cosmos 1331 Rocket 3.8 03:14:57 10° NNW 03:20:14 75° WSW 03:20:19 74° WSW
ERBS 3.9 03:21:21 35° N 03:21:21 35° N 03:23:53 10° NE
Cosmos 1745 Rocket 4.0 03:14:16 10° NNW 03:20:35 65° W 03:21:35 57° SW
IRS-P3 4.3 03:16:19 10° N 03:21:32 56° WNW 03:21:51 55° W
Cosmos 1733 Rocket 4.5 03:18:00 10° N 03:22:04 36° ENE 03:24:38 19° SE
Cosmos 1709 Rocket 4.3 03:15:50 10° N 03:22:11 66° ENE 03:26:15 23° SSE
CZ-2D R/B 3.0 03:18:02 10° NNE 03:23:03 42° E 03:25:08 29° SSE
ARIANE 5 R/B 3.1 03:19:04 10° NNE 03:24:14 54° E 03:25:47 40° SSE
SeaSat 1 3.9 03:23:28 10° ESE 03:27:59 37° NE 03:32:31 10° NNW
Cosmos 1151 Rocket 4.2 03:28:51 32° NW 03:28:51 32° NW 03:32:02 10° N
Cosmos 1707 Rocket 3.5 03:29:13 87° W 03:29:13 87° W 03:33:44 10° N
ADEOS 3.5 03:25:43 10° NNE 03:30:58 89° ESE 03:31:59 60° SSW
Cosmos 158 Rocket 4.0 03:33:39 56° W 03:34:03 57° WNW 03:38:58 10° NNE
Meteor 2-3 Rocket 3.7 03:28:32 10° NNW 03:34:18 72° W 03:35:46 50° SSW
Cosmos 1300 3.6 03:36:03 40° NNW 03:36:03 40° NNW 03:38:55 10° N
USA 234 3.7 03:29:20 10° ENE 03:35:41 49° SE 03:38:01 35° S
AQUA 4.0 03:31:47 10° N 03:36:26 52° WNW 03:36:36 52° W
Cosmos 1943 3.1 03:38:42 51° SSW 03:40:12 85° ESE 03:45:54 10° NNE
Meteor 1-4 Rocket 4.3 03:42:32 23° NW 03:42:32 23° NW 03:44:23 10° N
UNK 3.6 03:41:59 53° S 03:43:05 86° WSW 03:47:43 10° NNW
NPP 4.1 03:38:44 10° N 03:43:49 43° WNW 03:44:40 40° W
CZ-3A R/B 3.6 03:42:40 18° W 03:46:57 43° NNW 03:50:54 10° ENE
Cosmos 2369 Rocket 2.3 03:42:10 10° NW 03:47:34 49° WSW 03:47:58 48° WSW
Cosmos 1455 2.9 03:47:05 42° SE 03:47:58 52° E 03:51:47 10° NNE
Abrixas rocket 2.7 03:51:04 61° ENE 03:51:04 61° ENE 03:53:56 10° E
Resurs 1-4 Rocket 2.1 03:48:14 10° NNE 03:53:33 77° ESE 03:55:55 34° S
Cosmos 2292 Rocket 3.7 03:53:52 10° NNW 03:55:53 40° NNW 03:55:53 40° NNW
Cosmos 724 4.3 03:55:18 40° SSW 03:57:36 84° SE 04:03:42 10° NE
NOSS 3-2 (A) 3.8 03:55:30 35° WSW 03:58:05 59° NW 04:04:52 10° NE
Okean O Rocket 3.3 03:55:35 10° NNE 03:59:33 30° E 04:03:29 10° SSE
Cosmos 1271 Rocket 4.1 04:01:11 27° WNW 04:01:11 27° WNW 04:04:18 10° N
SL-27 R/B 4.2 04:00:54 20° SE 04:02:33 29° ESE 04:05:44 10° NE
Cosmos 1408 4.2 04:01:44 10° N 04:05:14 35° ENE 04:08:42 10° SE
Cosmos 2251 Rocket 3.9 04:03:50 39° WSW 04:05:18 50° WNW 04:10:26 10° NNE
Cosmos 1943 Rocket 2.1 04:00:40 10° NNW 04:06:22 78° WSW 04:12:00 10° SSE
ERS-2 2.5 04:06:17 10° N 04:09:52 46° WNW 04:10:04 45° W
CENTAUR R/B 3.1 04:07:19 22° S 04:11:11 51° ESE 04:17:51 10° NE
MTI 3.8 04:12:35 39° SSE 04:13:43 87° ENE 04:17:06 10° NNW
SL-16 R/B 4.2 04:11:03 11° WNW 04:13:59 16° NW 04:17:28 10° N
Sich 1 Rocket 3.8 04:10:15 10° N 04:14:39 70° E 04:19:02 10° SSE
NOSS 3-2 (C) 3.9 04:12:39 29° WSW 04:15:50 57° NW 04:22:38 10° NE
Cosmos 1825 2.9 04:16:02 10° N 04:19:47 54° ENE 04:23:30 10° SSE
Cosmos 2285 Rocket 4.1 04:15:02 10° NNW 04:21:31 82° ENE 04:27:55 10° SSE
Cosmos 2315 Rocket 4.1 04:20:56 26° SSW 04:24:31 60° WNW 04:30:47 10° N
Meteor 2-11 Rocket 4.5 04:27:17 23° SSW 04:31:11 62° WNW 04:37:14 10° N
Cosmos 1656 Rocket 3.6 04:29:58 10° NNW 04:35:27 89° ENE 04:40:52 10° SSE
Cosmos 1862 Rocket 3.6 04:35:58 25° SSW 04:38:22 59° WNW 04:42:46 10° N
ATLAS 5 CENTAUR R/B 2.0 04:38:24 25° SW 04:41:17 71° NW 04:46:40 10° NE
CZ-4C R/B 4.0 04:36:44 11° WNW 04:41:18 26° NNW 04:46:39 10° NNE
UNKNOWN OBJECT B 3.2 04:42:41 10° N 04:46:12 40° WNW 04:47:50 25° WSW
EO 1 Del DPAF 4.3 04:46:13 25° WSW 04:47:00 27° W 04:50:22 10° NW
Cosmos 1862 3.2 04:43:03 10° NNW 04:47:01 67° W 04:50:57 10° S
Okean 1-7 4.2 04:43:06 10° SSE 04:47:12 44° E 04:51:21 10° NNE
Cosmos 1184 Rocket 3.9 04:45:55 10° NW 04:48:51 26° W 04:49:15 26° WSW
Okean 2 Rocket 3.5 04:45:54 10° N 04:50:24 66° E 04:54:54 10° SSE
Cosmos 1892 4.4 04:48:05 10° NW 04:50:15 16° W 04:50:15 16° W
SL-16 R/B 3.5 04:53:44 17° SW 04:56:39 24° W 05:01:36 10° NW
CZ-2C R/B 3.8 04:53:31 10° S 04:57:50 52° W 05:02:12 10° NNW
Cosmos 1869 4.1 04:56:05 21° SW 04:58:06 33° WNW 05:01:44 10° N
Cosmos 389 Rocket 3.1 04:57:23 21° SW 04:59:14 38° WNW 05:02:34 10° N
Cosmos 1733 Rocket 4.2 04:56:12 10° NW 04:59:42 24° W 05:01:40 18° SW
CZ-2D R/B 3.0 04:58:24 10° N 05:02:59 31° WNW 05:06:28 15° WSW
ARIANE 5 R/B 3.8 04:58:50 10° N 05:03:00 25° WNW 05:06:07 15° WSW
SeaSat 1 2.9 05:00:55 10° S 05:05:29 38° WSW 05:10:06 10° NW
Nadezhda 1 Rocket 4.0 05:02:05 10° SSW 05:08:22 77° W 05:14:47 10° N
Cosmos 1782 Rocket 3.5 05:05:06 10° NNW 05:09:25 65° W 05:13:42 10° S
Cosmos 1933 3.6 05:06:08 11° SSW 05:10:01 51° WNW 05:14:03 10° N
CZ-4B R/B 2.6 05:06:37 10° N 05:10:16 73° WNW 05:14:01 10° SSW
Meteor 1-14 Rocket 4.4 05:07:10 10° N 05:13:01 88° ENE 05:18:57 10° S
USA 234 3.5 05:12:21 10° NE 05:18:51 66° NNW 05:25:19 10° WSW
COSMOS 2487 3.0 05:16:58 10° S 05:20:31 62° ESE 05:24:06 10° NNE
Cosmos 1455 4.2 05:22:08 11° W 05:24:03 14° WNW 05:26:15 10° NNW
Abrixas rocket 2.5 05:24:21 10° W 05:27:35 47° SSW 05:30:49 10° SE
COSMOS 2406 3.4 05:23:19 10° SW 05:29:00 59° WNW 05:34:43 10° NNE
Cosmos 2369 4.3 05:24:46 10° NNW 05:30:30 66° ENE 05:36:12 10° SE
Resurs 1-4 Rocket 3.7 05:29:17 10° NNW 05:32:48 18° WNW 05:36:20 10° W
Cosmos 1174 4.4 05:28:38 10° SW 05:33:45 57° NW 05:37:50 10° NNE
Cosmos 2154 Rocket 4.1 05:28:12 10° NNW 05:34:25 59° W 05:40:36 10° S
Okean O Rocket 2.5 05:31:56 10° N 05:35:54 32° WNW 05:39:51 10° SW
CZ-4B R/B 3.4 05:30:57 10° N 05:36:03 48° WNW 05:41:06 10° SW
COSMO-SKYMED 1 4.2 05:32:39 10° SE 05:36:44 41° ENE 05:40:50 10° N
CZ-4B DEB 4.4 05:31:25 10° N 05:36:44 53° WNW 05:42:01 10° SW
SL-27 R/B 3.9 05:34:53 10° WSW 05:37:52 23° WNW 05:40:48 10° N
Cosmos 1190 Rocket 4.0 05:33:17 10° SSW 05:38:27 69° WNW 05:43:39 10° NNE
Cosmos 1356 4.2 05:36:17 10° N 05:39:49 59° ENE 05:43:18 10° SSE
Cosmos 1408 4.2 05:37:36 10° NW 05:40:10 18° W 05:42:44 10° SW
Cosmos 2221 Rocket 4.2 05:37:51 10° SW 05:41:58 37° WNW 05:46:06 10° N
Okean-O 2.6 05:38:54 10° N 05:43:21 74° WNW 05:47:46 10° SSW
Thor Agena Rocket 4.2 05:40:04 10° SSW 05:44:43 34° W 05:49:29 10° NNW
Meteor 2-10 Rocket 4.0 05:39:37 10° S 05:45:25 81° E 05:51:06 10° NNE
ADEOS II 2.1 05:40:27 10° NNE 05:45:44 81° WNW 05:51:00 10° SSW
Aureole 3 Rocket 4.0 05:40:04 10° SSW 05:46:14 45° WNW 05:50:43 10° N
ADEOS Rocket 3.7 05:40:37 10° NNE 05:48:19 76° WNW 05:56:03 10° SSW
